Find Starlink 1454

NORAD ID: 45671 Int'l Des: 2020-035 Owner: SPXS Country: US Constellation: starlink operational
LEOCIRCULAR

現在のビュー

3D地球を読み込み中...

About Starlink 1454

Starlink 1454 (NORAD 45671) is a starlink constellation satellite (v1.0) launched Jun 4, 2020 by SPXS of US. It operates in LEO, CIRCULAR orbit with a mass of 260.00 kg.

Starlink 1454について

説明を読み込み中...

次回通過

Passes for default location (London). Set your location on the main map for personalized predictions.

高度履歴

Loading altitude history...

軌道要素

1 45671U 20035Q 26171.50003471 .01132979 00000-0 84004-2 0 9990
2 45671 53.0411 271.5509 0001873 75.4433 90.6090 15.69904944 5845
Epoch: Jun 20, 2026 • Age: 27 hours

現在のステータス

高度 355.7 km
速度 7.70 km/s
衛星直下点 45.30°N, 179.62°E
打ち上げ日 Jun 4, 2020
運用期間 6 years
タイプ internet

技術仕様

分類 Payload
質量 260.00 kg
乾燥質量 248.00 kg
総質量 260.00 kg
長さ 0.20 m
直径 2.80 m
スパン 9.00 m
形状 Box + pan
製造者 SPXS
バスタイプ Starlink
フェーズステータス In Orbit
所有者/国 SPXS/US

Most Searched